User: anonymous   Login
Location: Unspecified
(0.0000°N, 0.0000°E)
Time: 15:10:00
(UTC+00:00)
Language:

AGILE - Orbit

View from above orbital plane
View from above orbital plane
View from above satellite
View from above satellite

Ground track
Ground track

The orbit data is extracted from the following two-line orbital elements,

1 31135U 07013A   14303.10876668  .00011604  00000-0  45375-3 0   818
2 31135 002.4689 359.1981 0016309 229.4941 130.3690 15.21399689416567
Epoch (UTC): 30 October 2014 02:36:37
Eccentricity: 0.0016309
inclination: 2.4689°
perigee height: 490 km
apogee height: 513 km
right ascension of ascending node: 359.1981°
argument of perigee: 229.4941°
revolutions per day: 15.21399689
mean anomaly at epoch: 130.3690°
orbit number at epoch: 41656

The dashed part of the orbit path shows where the satellite is in the earth's shadow,  

DLR